Вернуться в каталог

STARLINK-34473

АктивенСвязьVLEO
NORAD 64354·PAYLOAD·🇺🇸 United States

Запущен Jun 13, 2025 с Vandenberg Space Force Base

Loading…

Ближайшие Пролёты (ближайшие 24 часа)

TLE

СвежийSource: CelesTrak SupGP

Эпоха: Sep 14, 2026, 22:52 UTC

1 64354C 25126L   26257.95326389  .00074132  00000+0  25790-2 0  2573
2 64354  70.0002 275.5701 0003453 266.4262 106.6683 15.29538720    16

Отслеживайте STARLINK-34473 в реальном времени с AllMySat

Download on the App Store